COSMOS 2557 (706K) (52984 NORAD) Tracking and Keplerian Element Data

This shows tracking and keplerian element data for the satellite.

Feedback or suggestion? Click here.




ElementValue
Catalog52984
NameCOSMOS 2557 (706K)
Epoch Orbit172
Epoch Day269.63928508
Epoch Year2022
RAAN1.9981
Inclination64.8147
Eccentricity0.0011555
Argument of Perigee276.2974
Mean Anonmoly68.3504
Mean Motion2.13101958
Decay Rate-6E-07
L11 52984U 22075A 22269.63928508 -.00000060 00000+0 10000-3 0 9996
L22 52984 64.8147 1.9981 0011555 276.2974 68.3504 2.13101958 1728

Live tracking and technical data element details for COSMOS 2557 (706K) (NORAD 52984). COSMOS 2557 (706K) can be tracked NOW for your location showing map with azimuth and elevation plus other details from your city location.

Track the satellite on the map from your city or location and see movement details for azimuth, elevation, latitude, longitude, range, height, and movement on the map or in text.







IsCatalogInMostPopularTable: catalog: 52984, numindb: 12
Update: records affected: 1



GetName: 52984 COSMOS 2557 (706K)

Hit Count: updated at: Thu, 06 Oct 2022 05:02:19 GMT